Location: ??????
(30.0081°N, 31.2109°E)
Time: 08:30:52
(UTC+00:00)

CZ-4 R/B - Pass Details

Date: 03 March 2021
Orbit: 532 x 597 km, 97.7° (Epoch: 16 April)

Event Time Altitude Azimuth Distance (km) Brightness Sun altitude
Rises 16:22:07 0° 155° (SSE) 2,660 4.6 -6.5°
Reaches altitude 10° 16:24:16 10° 149° (SSE) 1,774 3.6 -7.0°
Maximum altitude 16:27:56 46° 75° (ENE) 720 1.5 -7.8°
Drops below altitude 10° 16:31:39 10° 2° (N) 1,797 3.9 -8.6°
Sets 16:33:50 0° 356° (N) 2,699 4.9 -9.1°
